TAP51 EGPH-EGKK

Flight info

Callsign TAP51
Flight time 1h 9m
Altitude 37000
Route GOSAM P600 FENIK L612 NAVSO DCT ADZOP DCT EGTOC DCT KEPAD L151 DISIT
Aircraft A320/M-SDE3FGHIRWY/LB1

Departure

Time 2026-04-26 09:17
Airport Edinburgh Airport (EGPH)

Arrival

Time 2026-04-26 10:26
Airport London Gatwick Airport (EGKK)
Time Latitude Longitude Altitude Speed Heading
2026-04-26 08:52 55.94905 -3.36494 114 ft 0 kts 148°
2026-04-26 08:53 55.94906 -3.36496 114 ft 0 kts 148°
2026-04-26 09:07 55.94917 -3.36509 112 ft 4 kts 149°
2026-04-26 09:07 55.94930 -3.36523 115 ft 2 kts 149°
2026-04-26 09:07 55.94951 -3.36561 113 ft 4 kts 90°
2026-04-26 09:07 55.94948 -3.36591 113 ft 4 kts 63°
2026-04-26 09:08 55.94942 -3.36608 114 ft 0 kts 58°
2026-04-26 09:11 55.94946 -3.36596 116 ft 6 kts 58°
2026-04-26 09:11 55.94983 -3.36489 115 ft 9 kts 58°
2026-04-26 09:12 55.95031 -3.36394 115 ft 12 kts 21°
2026-04-26 09:12 55.95114 -3.36347 114 ft 15 kts 51°
2026-04-26 09:12 55.95150 -3.36238 114 ft 12 kts 60°
2026-04-26 09:12 55.95199 -3.36089 114 ft 16 kts 58°
2026-04-26 09:13 55.95264 -3.35896 111 ft 20 kts 59°
2026-04-26 09:13 55.95338 -3.35681 115 ft 19 kts 59°
2026-04-26 09:13 55.95399 -3.35500 115 ft 13 kts 59°
2026-04-26 09:13 55.95460 -3.35406 116 ft 11 kts 355°
2026-04-26 09:14 55.95495 -3.35436 112 ft 0 kts 327°
2026-04-26 09:16 55.95538 -3.35483 113 ft 13 kts 329°
2026-04-26 09:16 55.95548 -3.35629 112 ft 0 kts 238°
2026-04-26 09:16 55.95475 -3.35850 112 ft 59 kts 239°
2026-04-26 09:16 55.95138 -3.36841 114 ft 124 kts 239°
2026-04-26 09:17 55.94618 -3.38409 266 ft 159 kts 240°
2026-04-26 09:17 55.94067 -3.40108 952 ft 158 kts 240°
2026-04-26 09:17 55.93539 -3.41802 1676 ft 158 kts 239°
2026-04-26 09:17 55.92956 -3.43529 2215 ft 172 kts 236°
2026-04-26 09:18 55.92245 -3.45504 2315 ft 207 kts 236°
2026-04-26 09:18 55.91389 -3.47877 2309 ft 242 kts 236°
2026-04-26 09:18 55.90551 -3.50531 2312 ft 250 kts 251°
2026-04-26 09:18 55.90195 -3.53638 3000 ft 257 kts 259°
2026-04-26 09:19 55.89883 -3.56747 4217 ft 254 kts 259°
2026-04-26 09:19 55.89569 -3.59853 5254 ft 257 kts 259°
2026-04-26 09:19 55.89252 -3.62996 6184 ft 250 kts 259°
2026-04-26 09:19 55.88958 -3.65914 7641 ft 229 kts 258°
2026-04-26 09:20 55.88669 -3.68744 8389 ft 242 kts 258°
2026-04-26 09:20 55.88360 -3.71728 9041 ft 255 kts 258°
2026-04-26 09:20 55.88031 -3.74903 9709 ft 266 kts 258°
2026-04-26 09:20 55.87699 -3.78191 10365 ft 271 kts 258°
2026-04-26 09:21 55.87363 -3.81561 10986 ft 283 kts 258°
2026-04-26 09:21 55.87017 -3.85078 11615 ft 294 kts 258°
2026-04-26 09:21 55.86658 -3.88722 12258 ft 304 kts 258°
2026-04-26 09:21 55.86283 -3.92485 12913 ft 313 kts 258°
2026-04-26 09:22 55.85895 -3.96352 13586 ft 322 kts 258°
2026-04-26 09:22 55.85497 -4.00322 14247 ft 329 kts 258°
2026-04-26 09:22 55.85092 -4.04368 14852 ft 335 kts 258°
2026-04-26 09:22 55.84666 -4.08516 15195 ft 350 kts 256°
2026-04-26 09:23 55.83764 -4.12625 15324 ft 368 kts 238°
2026-04-26 09:23 55.82079 -4.16091 15453 ft 385 kts 219°
2026-04-26 09:23 55.79829 -4.18909 15785 ft 394 kts 215°
2026-04-26 09:23 55.77566 -4.21575 16293 ft 399 kts 211°
2026-04-26 09:24 55.74932 -4.23168 16809 ft 407 kts 189°
2026-04-26 09:24 55.72088 -4.22792 17332 ft 418 kts 167°
2026-04-26 09:24 55.69467 -4.20454 17821 ft 430 kts 145°
2026-04-26 09:24 55.67357 -4.16626 18314 ft 438 kts 134°
2026-04-26 09:25 55.65118 -4.13017 18753 ft 434 kts 151°
2026-04-26 09:25 55.62348 -4.11054 19151 ft 429 kts 171°
2026-04-26 09:25 55.59417 -4.10028 19582 ft 431 kts 172°
2026-04-26 09:25 55.56505 -4.09030 19997 ft 433 kts 172°
2026-04-26 09:26 55.53493 -4.08002 20392 ft 437 kts 172°
2026-04-26 09:26 55.50545 -4.07000 20783 ft 440 kts 172°
2026-04-26 09:26 55.47573 -4.05598 21151 ft 448 kts 161°
2026-04-26 09:26 55.44814 -4.02955 21485 ft 455 kts 152°
2026-04-26 09:27 55.42080 -4.00131 21876 ft 456 kts 153°
2026-04-26 09:27 55.39292 -3.97432 22264 ft 458 kts 155°
2026-04-26 09:27 55.36468 -3.94794 22630 ft 461 kts 155°
2026-04-26 09:27 55.33622 -3.92160 22979 ft 464 kts 155°
2026-04-26 09:28 55.30765 -3.89496 23306 ft 466 kts 155°
2026-04-26 09:28 55.27937 -3.86831 23645 ft 469 kts 154°
2026-04-26 09:28 55.25061 -3.84087 23931 ft 473 kts 154°
2026-04-26 09:28 55.22122 -3.81492 24183 ft 473 kts 160°
2026-04-26 09:29 55.19040 -3.79560 24445 ft 472 kts 165°
2026-04-26 09:29 55.15905 -3.77821 24739 ft 473 kts 166°
2026-04-26 09:29 55.12757 -3.76095 25018 ft 475 kts 166°
2026-04-26 09:29 55.09596 -3.74373 25298 ft 477 kts 166°
2026-04-26 09:30 55.06422 -3.72650 25583 ft 478 kts 166°
2026-04-26 09:30 55.03250 -3.70927 25979 ft 477 kts 166°
2026-04-26 09:30 55.00086 -3.69203 26373 ft 476 kts 166°
2026-04-26 09:30 54.96972 -3.67501 26758 ft 475 kts 166°
2026-04-26 09:31 54.93828 -3.65786 27142 ft 474 kts 167°
2026-04-26 09:31 54.90680 -3.64075 27576 ft 472 kts 167°
2026-04-26 09:31 54.87552 -3.62383 27997 ft 471 kts 167°
2026-04-26 09:31 54.84423 -3.60696 28416 ft 470 kts 167°
2026-04-26 09:32 54.81300 -3.59017 28837 ft 469 kts 167°
2026-04-26 09:32 54.78184 -3.57342 29261 ft 468 kts 167°
2026-04-26 09:32 54.75072 -3.55670 29692 ft 467 kts 168°
2026-04-26 09:32 54.71968 -3.54007 30112 ft 467 kts 168°
2026-04-26 09:33 54.68869 -3.52346 30490 ft 466 kts 168°
2026-04-26 09:33 54.65778 -3.50686 30855 ft 465 kts 168°
2026-04-26 09:33 54.62734 -3.49056 31219 ft 464 kts 168°
2026-04-26 09:33 54.59654 -3.47411 31569 ft 463 kts 168°
2026-04-26 09:34 54.56579 -3.45775 31912 ft 462 kts 168°
2026-04-26 09:34 54.53515 -3.44151 32262 ft 461 kts 168°
2026-04-26 09:34 54.50450 -3.42530 32619 ft 460 kts 168°
2026-04-26 09:34 54.47390 -3.40909 32987 ft 460 kts 168°
2026-04-26 09:35 54.44335 -3.39290 33325 ft 459 kts 168°
2026-04-26 09:35 54.41285 -3.37674 33663 ft 459 kts 168°
2026-04-26 09:35 54.38236 -3.36061 34017 ft 458 kts 168°
2026-04-26 09:35 54.35191 -3.34455 34355 ft 457 kts 168°
2026-04-26 09:36 54.32149 -3.32856 34655 ft 457 kts 168°
2026-04-26 09:36 54.29151 -3.31286 34962 ft 456 kts 168°
2026-04-26 09:36 54.26116 -3.29698 35254 ft 456 kts 167°
2026-04-26 09:36 54.23082 -3.28111 35528 ft 456 kts 167°
2026-04-26 09:37 54.20059 -3.26534 35783 ft 455 kts 168°
2026-04-26 09:37 54.16986 -3.25400 36031 ft 450 kts 177°
2026-04-26 09:37 54.13883 -3.24865 36278 ft 448 kts 179°
2026-04-26 09:37 54.10781 -3.24380 36530 ft 448 kts 179°
2026-04-26 09:38 54.07680 -3.23903 36780 ft 447 kts 179°
2026-04-26 09:38 54.04581 -3.23423 37022 ft 447 kts 179°
2026-04-26 09:38 54.01486 -3.22870 37237 ft 449 kts 175°
2026-04-26 09:39 53.95482 -3.19798 37293 ft 458 kts 163°
2026-04-26 09:39 53.89530 -3.15931 37300 ft 458 kts 163°
2026-04-26 09:40 53.83569 -3.12108 37300 ft 459 kts 163°
2026-04-26 09:40 53.77653 -3.08319 37303 ft 460 kts 163°
2026-04-26 09:41 53.71660 -3.04481 37304 ft 461 kts 163°
2026-04-26 09:41 53.65705 -3.00676 37291 ft 461 kts 163°
2026-04-26 09:42 53.59697 -2.96877 37295 ft 461 kts 163°
2026-04-26 09:42 53.53694 -2.93080 37302 ft 461 kts 163°
2026-04-26 09:43 53.47684 -2.89273 37305 ft 462 kts 163°
2026-04-26 09:43 53.41671 -2.85479 37330 ft 462 kts 163°
2026-04-26 09:44 53.35661 -2.81711 37336 ft 462 kts 163°
2026-04-26 09:44 53.29639 -2.77951 37330 ft 462 kts 163°
2026-04-26 09:45 53.23659 -2.74225 37328 ft 462 kts 163°
2026-04-26 09:45 53.17647 -2.70472 37327 ft 462 kts 163°
2026-04-26 09:46 53.11626 -2.66718 37329 ft 462 kts 163°
2026-04-26 09:46 53.05606 -2.62992 37332 ft 462 kts 163°
2026-04-26 09:47 52.99594 -2.59293 37130 ft 462 kts 163°
2026-04-26 09:47 52.96577 -2.57443 36839 ft 461 kts 163°
2026-04-26 09:47 52.93564 -2.55599 36578 ft 462 kts 163°
2026-04-26 09:47 52.90550 -2.53754 36325 ft 462 kts 163°
2026-04-26 09:48 52.87533 -2.51909 35995 ft 464 kts 163°
2026-04-26 09:48 52.84548 -2.50084 35447 ft 463 kts 163°
2026-04-26 09:48 52.81552 -2.48089 34921 ft 466 kts 158°
2026-04-26 09:48 52.78725 -2.45412 34379 ft 471 kts 149°
2026-04-26 09:49 52.76005 -2.42378 33742 ft 472 kts 149°
2026-04-26 09:49 52.73275 -2.39352 33102 ft 474 kts 150°
2026-04-26 09:49 52.70531 -2.36332 32493 ft 475 kts 150°
2026-04-26 09:49 52.67778 -2.33316 31899 ft 476 kts 150°
2026-04-26 09:50 52.65016 -2.30295 31323 ft 477 kts 150°
2026-04-26 09:50 52.62246 -2.27268 30747 ft 478 kts 150°
2026-04-26 09:50 52.59470 -2.24232 30152 ft 480 kts 150°
2026-04-26 09:50 52.56688 -2.21191 29500 ft 481 kts 150°
2026-04-26 09:51 52.53902 -2.18149 28859 ft 482 kts 150°
2026-04-26 09:51 52.51107 -2.15097 28241 ft 483 kts 149°
2026-04-26 09:51 52.48299 -2.12039 27618 ft 484 kts 149°
2026-04-26 09:51 52.45488 -2.08985 27023 ft 485 kts 149°
2026-04-26 09:52 52.42679 -2.05940 26441 ft 486 kts 149°
2026-04-26 09:52 52.37029 -1.99824 25312 ft 488 kts 149°
2026-04-26 09:52 52.34194 -1.96760 24762 ft 489 kts 149°
2026-04-26 09:53 52.31355 -1.93695 24227 ft 488 kts 149°
2026-04-26 09:53 52.28530 -1.90647 23655 ft 484 kts 149°
2026-04-26 09:53 52.25736 -1.87639 23004 ft 479 kts 148°
2026-04-26 09:53 52.22966 -1.84667 22395 ft 474 kts 149°
2026-04-26 09:54 52.20224 -1.81730 21795 ft 469 kts 149°
2026-04-26 09:54 52.17547 -1.78867 21229 ft 464 kts 149°
2026-04-26 09:54 52.14860 -1.75999 20652 ft 460 kts 149°
2026-04-26 09:54 52.12193 -1.73161 20373 ft 457 kts 149°
2026-04-26 09:55 52.09542 -1.70343 20289 ft 456 kts 149°
2026-04-26 09:55 52.06891 -1.67520 19810 ft 453 kts 149°
2026-04-26 09:55 52.04265 -1.64722 19432 ft 450 kts 149°
2026-04-26 09:55 52.01655 -1.61951 19024 ft 446 kts 149°
2026-04-26 09:56 51.99065 -1.59208 18638 ft 443 kts 149°
2026-04-26 09:56 51.96494 -1.56490 18214 ft 440 kts 149°
2026-04-26 09:56 51.93937 -1.53790 17837 ft 437 kts 149°
2026-04-26 09:56 51.91398 -1.51115 17457 ft 434 kts 149°
2026-04-26 09:57 51.88872 -1.48457 17081 ft 432 kts 149°
2026-04-26 09:57 51.86400 -1.45856 16705 ft 429 kts 149°
2026-04-26 09:57 51.83900 -1.43230 16325 ft 428 kts 149°
2026-04-26 09:57 51.81410 -1.40617 15964 ft 426 kts 149°
2026-04-26 09:58 51.78931 -1.38017 15591 ft 423 kts 149°
2026-04-26 09:58 51.76474 -1.35441 15327 ft 421 kts 149°
2026-04-26 09:58 51.74018 -1.32874 15057 ft 420 kts 149°
2026-04-26 09:58 51.71575 -1.30326 14682 ft 417 kts 149°
2026-04-26 09:59 51.69120 -1.27769 14425 ft 415 kts 149°
2026-04-26 09:59 51.66728 -1.25279 14162 ft 413 kts 148°
2026-04-26 09:59 51.64317 -1.22769 13868 ft 412 kts 148°
2026-04-26 09:59 51.61915 -1.20276 13597 ft 410 kts 148°
2026-04-26 10:00 51.59523 -1.17796 13325 ft 408 kts 148°
2026-04-26 10:00 51.57138 -1.15328 13064 ft 407 kts 148°
2026-04-26 10:00 51.54764 -1.12873 12795 ft 405 kts 148°
2026-04-26 10:00 51.52399 -1.10432 12527 ft 403 kts 148°
2026-04-26 10:01 51.50080 -1.08037 12270 ft 402 kts 148°
2026-04-26 10:01 51.47696 -1.05580 12000 ft 400 kts 148°
2026-04-26 10:01 51.45364 -1.03181 11739 ft 392 kts 148°
2026-04-26 10:01 51.43128 -1.00878 11617 ft 373 kts 148°
2026-04-26 10:02 51.41021 -0.98709 11478 ft 356 kts 148°
2026-04-26 10:02 51.38984 -0.96616 11359 ft 340 kts 148°
2026-04-26 10:02 51.37029 -0.94613 11229 ft 327 kts 148°
2026-04-26 10:02 51.35149 -0.92690 11097 ft 315 kts 148°
2026-04-26 10:03 51.33340 -0.90841 10990 ft 303 kts 148°
2026-04-26 10:03 51.31586 -0.89056 10772 ft 296 kts 148°
2026-04-26 10:03 51.29867 -0.87307 10625 ft 292 kts 148°
2026-04-26 10:03 51.28158 -0.85566 10499 ft 291 kts 148°
2026-04-26 10:04 51.26454 -0.83830 10374 ft 290 kts 148°
2026-04-26 10:04 51.24753 -0.82095 10222 ft 290 kts 148°
2026-04-26 10:04 51.23078 -0.80388 10032 ft 289 kts 148°
2026-04-26 10:04 51.21388 -0.78669 9870 ft 288 kts 148°
2026-04-26 10:05 51.19700 -0.76957 9704 ft 287 kts 148°
2026-04-26 10:05 51.18017 -0.75255 9534 ft 286 kts 148°
2026-04-26 10:05 51.16339 -0.73559 9360 ft 285 kts 148°
2026-04-26 10:05 51.14665 -0.71869 9198 ft 284 kts 148°
2026-04-26 10:06 51.12996 -0.70183 9032 ft 284 kts 148°
2026-04-26 10:06 51.11329 -0.68500 8869 ft 283 kts 148°
2026-04-26 10:06 51.09668 -0.66820 8701 ft 282 kts 148°
2026-04-26 10:06 51.08014 -0.65147 8539 ft 282 kts 148°
2026-04-26 10:07 51.06396 -0.63407 8373 ft 281 kts 140°
2026-04-26 10:07 51.05074 -0.61143 8203 ft 280 kts 125°
2026-04-26 10:07 51.04135 -0.58442 8041 ft 279 kts 116°
2026-04-26 10:07 51.03277 -0.55674 7866 ft 279 kts 116°
2026-04-26 10:08 51.02427 -0.52964 7720 ft 278 kts 116°
2026-04-26 10:08 51.01563 -0.50220 7560 ft 277 kts 117°
2026-04-26 10:08 51.00702 -0.47487 7400 ft 276 kts 116°
2026-04-26 10:08 50.99844 -0.44768 7238 ft 275 kts 117°
2026-04-26 10:09 50.98988 -0.42060 7044 ft 275 kts 117°
2026-04-26 10:09 50.98131 -0.39342 6650 ft 273 kts 116°
2026-04-26 10:09 50.97287 -0.36661 6452 ft 271 kts 116°
2026-04-26 10:09 50.96447 -0.33997 6283 ft 269 kts 117°
2026-04-26 10:10 50.95611 -0.31350 6123 ft 267 kts 116°
2026-04-26 10:10 50.94780 -0.28721 5971 ft 265 kts 117°
2026-04-26 10:10 50.93956 -0.26120 5817 ft 263 kts 117°
2026-04-26 10:10 50.93140 -0.23555 5670 ft 264 kts 117°
2026-04-26 10:11 50.92317 -0.20964 5504 ft 263 kts 117°
2026-04-26 10:11 50.91492 -0.18376 5358 ft 262 kts 117°
2026-04-26 10:11 50.90681 -0.15833 5209 ft 253 kts 117°
2026-04-26 10:11 50.89908 -0.13412 5085 ft 241 kts 117°
2026-04-26 10:12 50.89170 -0.11090 4952 ft 231 kts 117°
2026-04-26 10:12 50.88498 -0.08831 4859 ft 226 kts 108°
2026-04-26 10:12 50.88370 -0.06375 4804 ft 227 kts 81°
2026-04-26 10:12 50.88970 -0.04107 4747 ft 230 kts 54°
2026-04-26 10:13 50.90217 -0.02498 4692 ft 235 kts 25°
2026-04-26 10:13 50.91818 -0.02039 4621 ft 240 kts 355°
2026-04-26 10:13 50.93387 -0.02897 4540 ft 242 kts 326°
2026-04-26 10:13 50.94493 -0.04874 4448 ft 242 kts 296°
2026-04-26 10:14 50.95178 -0.07261 4389 ft 232 kts 294°
2026-04-26 10:14 50.95817 -0.09560 4317 ft 226 kts 293°
2026-04-26 10:14 50.96458 -0.11866 4239 ft 230 kts 294°
2026-04-26 10:14 50.97108 -0.14189 4145 ft 230 kts 294°
2026-04-26 10:15 50.97758 -0.16510 4039 ft 230 kts 294°
2026-04-26 10:15 50.98402 -0.18831 4001 ft 229 kts 291°
2026-04-26 10:15 50.98842 -0.21252 4006 ft 228 kts 283°
2026-04-26 10:15 50.99233 -0.23713 3807 ft 233 kts 283°
2026-04-26 10:16 50.99624 -0.26167 3562 ft 230 kts 283°
2026-04-26 10:16 51.00014 -0.28605 3382 ft 227 kts 283°
2026-04-26 10:16 51.00403 -0.31033 3209 ft 226 kts 283°
2026-04-26 10:16 51.00788 -0.33444 3098 ft 224 kts 283°
2026-04-26 10:17 51.01173 -0.35852 3000 ft 224 kts 283°
2026-04-26 10:17 51.01557 -0.38246 2996 ft 224 kts 283°
2026-04-26 10:17 51.01936 -0.40636 3001 ft 219 kts 283°
2026-04-26 10:17 51.02298 -0.42927 3006 ft 211 kts 283°
2026-04-26 10:18 51.02654 -0.45168 2999 ft 208 kts 283°
2026-04-26 10:18 51.03005 -0.47381 3002 ft 207 kts 283°
2026-04-26 10:18 51.03360 -0.49606 3002 ft 207 kts 283°
2026-04-26 10:18 51.03725 -0.51819 2995 ft 206 kts 287°
2026-04-26 10:19 51.04510 -0.53681 3003 ft 205 kts 326°
2026-04-26 10:19 51.05732 -0.54602 3012 ft 189 kts 348°
2026-04-26 10:19 51.06959 -0.54806 3005 ft 169 kts
2026-04-26 10:19 51.08049 -0.54457 2990 ft 155 kts 26°
2026-04-26 10:20 51.08978 -0.53692 3002 ft 147 kts 41°
2026-04-26 10:20 51.09475 -0.53024 3024 ft 139 kts 50°
2026-04-26 10:20 51.10203 -0.51377 3020 ft 134 kts 70°
2026-04-26 10:20 51.10488 -0.49984 3010 ft 131 kts 82°
2026-04-26 10:21 51.10690 -0.48560 3008 ft 131 kts 81°
2026-04-26 10:21 51.10888 -0.47157 3013 ft 132 kts 81°
2026-04-26 10:21 51.11088 -0.45734 3011 ft 131 kts 81°
2026-04-26 10:21 51.11288 -0.44317 3010 ft 133 kts 81°
2026-04-26 10:22 51.11490 -0.42885 2963 ft 133 kts 82°
2026-04-26 10:22 51.11691 -0.41456 2829 ft 132 kts 79°
2026-04-26 10:22 51.11887 -0.40051 2689 ft 131 kts 81°
2026-04-26 10:22 51.12087 -0.38629 2529 ft 132 kts 81°
2026-04-26 10:23 51.12285 -0.37209 2358 ft 131 kts 82°
2026-04-26 10:23 51.12486 -0.35780 2169 ft 132 kts 81°
2026-04-26 10:23 51.12682 -0.34376 1983 ft 130 kts 82°
2026-04-26 10:23 51.12878 -0.32978 1812 ft 129 kts 82°
2026-04-26 10:24 51.13072 -0.31585 1651 ft 129 kts 81°
2026-04-26 10:24 51.13263 -0.30208 1456 ft 130 kts 79°
2026-04-26 10:24 51.13458 -0.28810 1286 ft 128 kts 80°
2026-04-26 10:24 51.13650 -0.27429 1104 ft 128 kts 80°
2026-04-26 10:25 51.13842 -0.26044 945 ft 128 kts 78°
2026-04-26 10:25 51.14033 -0.24668 748 ft 131 kts 78°
2026-04-26 10:25 51.14225 -0.23264 585 ft 129 kts 78°
2026-04-26 10:25 51.14434 -0.21872 395 ft 129 kts 77°
2026-04-26 10:26 51.14627 -0.20486 245 ft 127 kts 78°
2026-04-26 10:26 51.14795 -0.19209 207 ft 100 kts 77°
2026-04-26 10:26 51.14893 -0.18607 212 ft 24 kts 52°
2026-04-26 10:26 51.14995 -0.18404 210 ft 23 kts 51°
2026-04-26 10:27 51.15082 -0.18235 206 ft 18 kts 46°
2026-04-26 10:27 51.15192 -0.18177 211 ft 16 kts 41°
2026-04-26 10:27 51.15225 -0.18002 206 ft 17 kts 66°
2026-04-26 10:27 51.15271 -0.17975 207 ft 3 kts 333°
2026-04-26 10:28 51.15289 -0.17986 209 ft 2 kts 343°
2026-04-26 10:28 51.15303 -0.17992 204 ft 2 kts 347°
2026-04-26 10:28 51.15307 -0.17994 204 ft 0 kts 347°